Погода в Дигосе

Филиппины     6°45′21″N   125°21′20″E
темп.,
°C
ветер,
м/с
пор.,
м/с
влажн.,
%
обл.,
%
осадки,
мм/ч
давл.,
гПа
погр.,
м
3 марта, ср
ср323:00+23юв119072 0.0 101333
02:00+22юз129036 0.0 101253
05:00+22з119028 0.0 101225
08:00+26ююв227346 0.0 1013431
11:00+30юв445824 0.0 10121303
14:00+30вюв566260 0.1 1010934
17:00+26вюв36745 0.2 1010676
20:00+23ююв128134 0.2 101379
4 марта, чт
чт423:00+22юз1276100 0.0 101365
02:00+21зюз117775 0.0 101142
05:00+21зсз11830 0.0 101228
08:00+25ююз11704 0.0 1013381
11:00+30ююв225631 0.0 10121297
14:00+30юв436163 0.1 10101203
17:00+28юв247384 0.4 1010491
20:00+24в258675 0.6 1013142
5 марта, пт
пт523:00+22ююз118574 0.0 101362
02:00+22зюз118837 0.0 101150
05:00+22зюз118824 0.0 101130
08:00+26ююз116924 0.0 1014456
11:00+31ю125271 0.0 10131294
14:00+31вюв555156 0.3 10101470
17:00+27вюв3671100 0.6 1010478
20:00+23св1175100 0.6 101231
6 марта, сб
сб623:00+22ю017998 0.0 101327
02:00+21зсз117892 0.0 101126
05:00+21з018728 0.0 101128
08:00+26ю116939 0.0 1013452
11:00+30ююв22544 0.0 10121332
14:00+29вюв446746 0.4 1009892
17:00+27вюв357423 1.3 1010471
20:00+23юв118212 1.4 101135
7 марта, вс
вс723:00+22сз11810 0.0 101239
02:00+21ссз11740 0.0 101125
05:00+20ссз11720 0.0 101126
08:00+25ююз11614 0.0 1013302
11:00+29юв225179 0.0 10121067
14:00+31юв425485 0.0 10091426
17:00+27в2473100 0.1 1009354
20:00+23в1183100 0.1 101141